Weather in Erbogachen

Russia / Irkutsk Oblast     61°16′29″N   108°00′23″E
temp.,
°C
wind,
m/s
gust,
m/s
humid.,
%
clouds,
%
prec.,
mm/h
press.,
hPa
HPBL,
m
17 april, sat
sat1723:00−5wnw4117980 0.0 995609
02:00−8wnw511816 0.0 996528
05:00−11wnw5118611 0.0 998651
08:00−11w61082100 0.0 1000912
11:00−11w71067100 0.0 10021141
14:00−9w71161100 0.0 10051615
17:00−10wnw61069100 0.1 10071632
20:00−12wnw51077100 0.2 1010898
18 april, sun
sun1823:00−13w5128178 0.0 1013560
02:00−15w511865 0.0 1015486
05:00−16w4118914 0.0 1018432
08:00−13w6107869 0.0 1020787
11:00−9w6965100 0.0 10211239
14:00−6w5860100 0.1 10201862
17:00−4w4756100 0.1 10201583
20:00−9s118726 0.2 102110
19 april, mon
mon1923:00−14s22945 0.0 102214
02:00−14sse239499 0.0 102138
05:00−11se2990100 0.0 1020164
08:00−6sse4107485 0.0 1018339
11:00−1sse685867 0.0 10151423
14:00+1sse6853100 0.1 10121975
17:000se61060100 0.1 10101489
20:00−3ese71365100 0.1 1008955
20 april, tue
tue2023:00−5e81773100 0.0 1005893
02:00−6e81863100 0.0 1002814
05:00−6e81666100 0.0 1001941
08:00−6e71386100 0.3 1001782
11:00−3s6781100 0.4 1002984
14:00−4s4585100 1.3 1006889
17:00−5ssw4683100 0.8 1010871
20:00−6ssw3688100 1.0 1012322
21 april, wed
wed2123:00−8s279599 0.1 1014197
02:00−9s2597100 0.1 1016182
05:00−9s139798 0.1 101876
08:00−7sw11779 0.1 1020281
11:00−3ssw015646 0.0 10211151
14:00−2w0153100 0.1 10221350
17:00−3nw2274100 0.4 1024740
20:00−5wnw239172 0.9 1027148